Tracking 21473 objects as of 27-Sep-2020
HD Live streaming from Space Station
objects crossing your sky now

STARLINK-1483

Track STARLINK-1483 now!
10-day predictions
STARLINK-1483 is classified as:


NORAD ID: 45743
Int'l Code: 2020-038P
Perigee: 555.8 km
Apogee: 558.2 km
Inclination: 53.0 °
Period: 95.6 minutes
Semi major axis: 6927 km
RCS: Unknown
Launch date: June 13, 2020
Source: United States (US)
Launch site: AIR FORCE EASTERN TEST RANGE (AFETR)
aabbcc
Your satellite tracking list
Your tracking list is empty




NASA's NSSDC Master Catalog

Two Line Element Set (TLE):
1 45743U 20038P   20271.58337963 +.00047157 +00000-0 +32367-2 0  9999
2 45743 053.0016 166.0586 0001731 075.1094 300.2334 15.05549872001765
Source of the keplerian elements: AFSPC